sat.trackr.live / text

‹ back to catalog

STARLINK-33817

NORAD 63583 · 2025-076Q

PAYLOAD ACTIVE UNKNOWN

§ Identity

Operator
Country
US
Launch date
2025-04-14
Launch site
AFETR
Launch vehicle
Mass (kg)
RCS (m²)

Purposes: comms

External: N2YO · Heavens-Above · Gunter

§ Orbital elements

Epoch: 2026-09-19T19:36:44.745120Z

Period
94.27 min
Inclination
43.0003°
Eccentricity
0.0001734
Mean motion
15.27588048 rev/d
Perigee alt
481.8 km
Apogee alt
484.2 km
Semi-major
6,861.2 km
B*
3.8289e-4
RAAN
305.0212°
Arg perigee
278.0952°
Mean anomaly
81.9702°
Rev number
8,151

§ Raw data

STARLINK-338171 63583U 25076Q   26262.81718455  .00010291  00000+0  38289-3 0  99972 63583  43.0003 305.0212 0001734 278.0952  81.9702 15.27588048 81518

JSON: /api/v1/satellites/63583 · /tle

For live sub-satellite position, see the globe view (requires WebGL).

§ Visibility from observer

Set your observer location to see the next 7 days of passes ≥ 10°. The values pass through the URL so the page stays shareable.

No JS? Fill the form by hand. The geolocation button needs JavaScript.